This demonstration page uses our WeatherBlox Daily Observations layout. Learn more.

Left ArrowRight Arrow

41.86663, -103.66717

Hourly Observations for June 16, 2016

Temp ( °F °C ) Dew Point ( °F °C ) Humidity (%) Winds ( mph kmh ) Pressure ( in mb ) Visibility ( mi km ) Precip ( " mm )
12:53 am 00:53 Clear 69 20.6 58 14.4 68 68 ESE 16 26 29.65 1004 10 16 0.00 0.00
1:53 am 01:53 Clear 67 19.4 57 13.9 71 71 ESE 12 19 29.64 1004 10 16 0.00 0.00
2:53 am 02:53 Clear 65 18.3 57 13.9 76 76 E 12 19 29.63 1003 10 16 0.00 0.00
3:53 am 03:53 Clear 63 17.2 57 13.9 81 81 ESE 5 7 29.65 1004 10 16 0.00 0.00
4:53 am 04:53 Clear 62 16.7 57 13.9 84 84 E 5 7 29.66 1004 10 16 0.00 0.00
5:53 am 05:53 Sunny 61 16.1 57 13.9 87 87 E 5 7 29.67 1005 10 16 0.00 0.00
6:53 am 06:53 Sunny 64 17.8 58 14.4 81 81 SSE 5 7 29.68 1005 10 16 0.00 0.00
7:53 am 07:53 Sunny 71 21.7 56 13.3 59 59 Calm 29.69 1005 10 16 0.00 0.00
8:53 am 08:53 Sunny 77 25 54 12.2 45 45 VRB 3 6 29.69 1006 10 16 0.00 0.00
9:53 am 09:53 Sunny 81 27.2 56 13.3 42 42 NW 7 11 29.69 1006 10 16 0.00 0.00
10:53 am 10:53 Sunny 87 30.6 46 7.8 24 24 WNW 8 13 29.68 1005 10 16 0.00 0.00
11:53 am 11:53 Sunny 91 32.8 42 5.6 18 18 undefined N/A 29.69 1005 10 16 0.00 0.00
12:53 pm 12:53 Sunny 92 33.3 37 2.8 14 14 W 6 9 29.69 1005 10 16 0.00 0.00
1:53 pm 13:53 Sunny 94 34.4 35 1.7 13 13 undefined N/A 29.68 1005 10 16 0.00 0.00
2:53 pm 14:53 Sunny 96 35.6 34 1.1 11 11 NW 6 9 29.68 1005 10 16 0.00 0.00
3:53 pm 15:53 Sunny 95 35 31 -0.6 10 10 VRB 5 7 29.68 1005 10 16 0.00 0.00
4:53 pm 16:53 Sunny 94 34.4 33 0.6 12 12 SSE 9 15 29.69 1006 10 16 0.00 0.00
5:53 pm 17:53 Sunny 93 33.9 33 0.6 12 12 SE 8 13 29.70 1006 10 16 0.00 0.00
6:53 pm 18:53 Sunny 91 32.8 38 3.3 15 15 SSE 7 11 29.70 1006 10 16 0.00 0.00
7:53 pm 19:53 Sunny 85 29.4 46 7.8 26 26 S 5 7 29.71 1006 10 16 0.00 0.00
8:53 pm 20:53 Clear 78 25.6 48 8.9 35 35 Calm 29.72 1007 10 16 0.00 0.00
9:53 pm 21:53 Clear 73 22.8 51 10.6 46 46 E 6 9 29.76 1008 10 16 0.00 0.00
10:53 pm 22:53 Clear 69 20.6 51 10.6 53 53 N 6 9 29.78 1009 10 16 0.00 0.00
11:53 pm 23:53 Clear 69 20.6 49 9.4 49 49 NNW 9 15 29.78 1009 10 16 0.00 0.00

Powered by AerisWeather